Weather History for Rocky Mount, NC

Change the Weather History Date:

Wednesday, October 23, 2013

  Actual Average Record
Temperature  
Mean Temperature 60 °F -  
Max Temperature 68 °F 74 °F 86 °F (1978)
Min Temperature 50 °F 47 °F 29 °F (1987)
Degree Days  
Heating Degree Days 6    
Growing Degree Days 10 (Base 50)    
Moisture  
Dew Point 52 °F    
Average Humidity 79    
Maximum Humidity 97    
Minimum Humidity 41    
Precipitation  
Precipitation 0.00 in - - ()
Sea Level Pressure  
Sea Level Pressure 29.76 in    
Wind  
Wind Speed 5 mph (WSW)    
Max Wind Speed 13 mph    
Max Gust Speed 21 mph    
Visibility 7 miles    
Events      
Averages and records for this station are not official NWS values.
T = Trace of Precipitation, MM = Missing Value Source: NWS Daily Summary

Daily Weather History Graph

Daily Weather History Graph

Search for Another Location

Airport:

Trip Planner

Search our weather history database for the weather conditions in past years. The results will help you decide how hot, cold, wet, or windy it might be!

Date:

Astronomy

Oct. 23, 2013 Rise Set
Actual Time 7:25 AM EDT 6:25 PM EDT
Civil Twilight 6:59 AM EDT 6:51 PM EDT
Nautical Twilight 6:29 AM EDT 7:21 PM EDT
Astronomical Twilight 5:59 AM EDT 7:51 PM EDT
Moon 9:59 PM EDT (10/23) 11:36 AM EDT (10/23)
Length of Visible Light 11h 52m
Length of Day
11h 00m
Waning Gibbous, 79% of the Moon is Illuminated
Oct 23
Waning Gibbous
Oct 26
Last Quarter
Nov 3
New
Nov 10
First Quarter
Nov 17
Full

Hourly Weather History & Observations

Time (EDT) Temp. Dew Point Humidity Pressure Visibility Wind Dir Wind Speed Gust Speed Precip Events Conditions
12:04 AM 57.0 °F 55.9 °F 96% 29.83 in 3.0 mi Calm Calm - N/A   Clear
12:53 AM 57.9 °F 57.0 °F 97% 29.80 in 4.0 mi Calm Calm - N/A   Scattered Clouds
1:28 AM 57.0 °F 55.9 °F 96% 29.79 in 2.0 mi Calm Calm - N/A   Mostly Cloudy
1:41 AM 57.0 °F 55.9 °F 96% 29.79 in 3.0 mi South 3.5 mph - N/A   Scattered Clouds
1:53 AM 57.0 °F 55.9 °F 96% 29.79 in 2.5 mi South 3.5 mph - N/A   Partly Cloudy
2:00 AM 57.0 °F 55.9 °F 96% 29.79 in 3.0 mi South 3.5 mph - N/A   Clear
2:29 AM 59.0 °F 57.9 °F 96% 29.78 in 4.0 mi South 5.8 mph - N/A   Mostly Cloudy
2:45 AM 59.0 °F 57.0 °F 93% 29.77 in 4.0 mi South 6.9 mph - N/A   Scattered Clouds
2:53 AM 59.0 °F 57.0 °F 93% 29.77 in 4.0 mi South 5.8 mph - N/A   Scattered Clouds
3:15 AM 59.0 °F 57.0 °F 93% 29.76 in 5.0 mi South 5.8 mph - N/A   Scattered Clouds
3:53 AM 57.9 °F 55.9 °F 93% 29.75 in 5.0 mi SSW 5.8 mph - N/A   Scattered Clouds
4:53 AM 57.9 °F 55.9 °F 93% 29.73 in 5.0 mi South 3.5 mph - N/A   Overcast
5:02 AM 57.9 °F 57.0 °F 97% 29.73 in 5.0 mi Calm Calm - N/A   Overcast
5:53 AM 57.9 °F 55.9 °F 93% 29.72 in 5.0 mi South 3.5 mph - N/A   Overcast
6:14 AM 59.0 °F 57.0 °F 93% 29.72 in 6.0 mi Calm Calm - N/A   Overcast
6:53 AM 59.0 °F 57.0 °F 93% 29.71 in 5.0 mi SSW 5.8 mph - N/A   Overcast
7:53 AM 59.0 °F 57.9 °F 96% 29.69 in 3.0 mi South 5.8 mph - N/A   Overcast
8:53 AM 60.1 °F 57.9 °F 93% 29.70 in 4.0 mi SW 6.9 mph - N/A   Overcast
9:15 AM 61.0 °F 57.9 °F 90% 29.70 in 4.0 mi SW 6.9 mph - N/A   Overcast
9:53 AM 63.0 °F 59.0 °F 87% 29.69 in 6.0 mi WSW 11.5 mph - N/A   Mostly Cloudy
10:21 AM 64.9 °F 57.9 °F 78% 29.70 in 7.0 mi West 8.1 mph - N/A   Mostly Cloudy
10:45 AM 59.0 °F 55.0 °F 87% 29.71 in 10.0 mi NW 10.4 mph - N/A   Mostly Cloudy
10:53 AM 61.0 °F 55.0 °F 81% 29.71 in 10.0 mi NW 10.4 mph - N/A   Mostly Cloudy
11:28 AM 61.0 °F 54.0 °F 78% 29.70 in 10.0 mi NW 8.1 mph - N/A   Partly Cloudy
11:53 AM 62.1 °F 53.1 °F 72% 29.71 in 10.0 mi WNW 10.4 mph - N/A   Clear
12:53 PM 64.9 °F 50.0 °F 58% 29.70 in 10.0 mi WNW 10.4 mph - N/A   Partly Cloudy
1:53 PM 66.0 °F 48.0 °F 52% 29.68 in 10.0 mi West 10.4 mph - N/A   Scattered Clouds
2:53 PM 64.9 °F 45.0 °F 48% 29.70 in 10.0 mi West 9.2 mph 20.7 mph N/A   Mostly Cloudy
3:53 PM 68.0 °F 44.1 °F 42% 29.70 in 10.0 mi WNW 9.2 mph 20.7 mph N/A   Clear
4:53 PM 64.9 °F 45.0 °F 48% 29.73 in 10.0 mi West 10.4 mph 17.3 mph N/A   Scattered Clouds
5:53 PM 63.0 °F 39.0 °F 41% 29.75 in 10.0 mi West 8.1 mph - N/A   Clear
7:53 PM 55.9 °F 44.1 °F 64% 29.84 in 10.0 mi West 4.6 mph - N/A   Partly Cloudy
8:53 PM 54.0 °F 39.0 °F 57% 29.88 in 10.0 mi NW 8.1 mph - N/A   Clear
9:53 PM 54.0 °F 35.1 °F 49% 29.93 in 10.0 mi WNW 11.5 mph - N/A   Clear
10:53 PM 51.1 °F 36.0 °F 56% 29.96 in 10.0 mi WNW 8.1 mph - N/A   Clear
11:53 PM 50.0 °F 35.1 °F 57% 29.99 in 10.0 mi NW 12.7 mph - N/A   Clear